Terminal Aerodrome Forecast
Issued by NWS Cleveland, OH

Home | Current Version | Previous Version | Text Only | Print | Product List | Glossary Off
Versions: 1 2 3 4 5 6 7 8 9 10 11 12 13 14 15 16 17 18 19 20 21 22 23 24 25 26

000
FTUS41 KCLE 270400 AAA
TAFERI
TAF AMD
KERI 270435Z 2705/2724 20010KT P6SM SCT025 OVC035
      TEMPO 2705/2707 OVC025
     FM270700 23010KT 4SM BR OVC025
     FM271900 25008KT P6SM VCTS BKN035CB=

USA.gov is the U.S. government's official web portal to all federal, state and local government web resources and services.